This is the latest recevied weather packets stored in our database for station/object VE7PRT-1. If no packets are shown the sender has not sent any weather packets the latest 10 day(s).
| Time | Temp. | Humidity | Pressure | Rain* | Wind** | Luminosity | Snow |
|---|---|---|---|---|---|---|---|
| 1777863234 | 21.11° C | 57% | 1010 hPa | 0 mm | - | - | - |
| 1777862439 | 21.11° C | 55% | 1010.2 hPa | 0 mm | - | - | - |
| 1777861685 | 21.67° C | 54% | 1010.2 hPa | 0 mm | - | - | - |
| 1777860879 | 21.67° C | 52% | 1010.4 hPa | 0 mm | - | - | - |
| 1777860019 | 22.22° C | 50% | 1010.5 hPa | 0 mm | - | - | - |
| 1777859214 | 22.22° C | 48% | 1010.6 hPa | 0 mm | - | - | - |
| 1777858464 | 22.78° C | 47% | 1010.8 hPa | 0 mm | - | - | - |
| 1777857744 | 23.89° C | 46% | 1010.9 hPa | 0 mm | - | - | - |
| 1777856859 | 24.44° C | 45% | 1011.1 hPa | 0 mm | - | - | - |
| 1777856094 | 24.44° C | 43% | 1011.2 hPa | 0 mm | - | - | - |
| 1777855314 | 25° C | 42% | 1011.2 hPa | 0 mm | - | - | - |
| 1777854444 | 25.56° C | 44% | 1011.4 hPa | 0 mm | - | - | - |
| 1777853684 | 25.56° C | 41% | 1011.5 hPa | 0 mm | - | - | - |
| 1777852859 | 26.11° C | 42% | 1011.6 hPa | 0 mm | - | - | - |
| 1777852080 | 26.11° C | 44% | 1011.7 hPa | 0 mm | - | - | - |
| 1777851264 | 26.11° C | 42% | 1011.8 hPa | 0 mm | - | - | - |
| 1777850427 | 26.11° C | 43% | 1012 hPa | 0 mm | - | - | - |
| 1777849554 | 25.56° C | 43% | 1012.1 hPa | 0 mm | - | - | - |
| 1777848781 | 25.56° C | 43% | 1012.3 hPa | 0 mm | - | - | - |
| 1777848744 | 25.56° C | 43% | 1012.3 hPa | 0 mm | - | - | - |
| 1777847874 | 25.56° C | 44% | 1012.4 hPa | 0 mm | - | - | - |
| 1777847024 | 25.56° C | 46% | 1012.6 hPa | 0 mm | - | - | - |
| 1777846132 | 25° C | 45% | 1012.8 hPa | 0 mm | - | - | - |
| 1777845379 | 24.44° C | 47% | 1012.9 hPa | 0 mm | - | - | - |
| 1777844556 | 23.89° C | 51% | 1012.9 hPa | 0 mm | - | - | - |
* Rain latest hour (hover to see other rain measurements)
** Current wind speed in m/s (hover to see current wind gust speed)